Queretaro Airport,

7:16 AM CDT on September 21, 2017 (GMT -0500)
Queretaro Airport

Weather History for MMQT - October, 2012

Change the Weather History Date:

Saturday, October 27, 2012

  Actual Average Record
Temperature  
Mean Temperature 64 °F -  
Max Temperature 79 °F 72 °F 84 °F (2010)
Min Temperature 48 °F 48 °F 32 °F (2011)
Degree Days  
Heating Degree Days 2    
Growing Degree Days 14 (Base 50)    
Moisture  
Dew Point 44 °F    
Average Humidity 54    
Maximum Humidity 82    
Minimum Humidity 16    
Precipitation  
Precipitation 0.00 in - - ()
Sea Level Pressure  
Sea Level Pressure 30.13 in    
Wind  
Wind Speed 8 mph ()    
Max Wind Speed 21 mph    
Max Gust Speed -    
Visibility 8.3 miles    
Events      
Averages and records for this station are not official NWS values.
T = Trace of Precipitation, MM = Missing Value Source: Averaged Metar Reports

Daily Weather History Graph

Daily Weather History Graph

Search for Another Location

Airport or City:

Trip Planner

Search our weather history database for the weather conditions in past years. The results will help you decide how hot, cold, wet, or windy it might be!

Date:

Astronomy

Oct. 27, 2012 Rise Set
Actual Time 7:40 AM CDT 7:07 PM CDT
Civil Twilight 7:18 AM CDT 7:30 PM CDT
Nautical Twilight 6:52 AM CDT 7:56 PM CDT
Astronomical Twilight 6:26 AM CDT 8:22 PM CDT
Moon 5:47 PM CDT (10/27) 5:48 AM CDT (10/27)
Length of Visible Light 12h 12m
Length of Day
11h 27m
Waxing Gibbous, 96% of the Moon is Illuminated
Oct 27
Waxing Gibbous
Oct 29
Full
Nov 6
Last Quarter
Nov 13
New
Nov 20
First Quarter

Hourly Weather History & Observations

Time (CDT) Temp. Dew Point Humidity Pressure Visibility Wind Dir Wind Speed Gust Speed Precip Events Conditions
12:40 AM 59 °F 48 °F 59% 29.72 in 6 mi SE 8.9 mph - -  
12:45 AM 51.8 °F 42.8 °F 71% 30.28 in 7.0 mi ENE 5.8 mph - N/A   Clear
1:45 AM 51.8 °F 42.8 °F 71% 30.28 in 7.0 mi ENE 4.6 mph - N/A   Clear
2:45 AM 51.8 °F 42.8 °F 71% 30.28 in 7.0 mi ENE 4.6 mph - N/A   Scattered Clouds
3:40 AM 57 °F 48 °F 65% 29.82 in 6 mi SE 4.5 mph - -  
3:45 AM 50.0 °F 42.8 °F 76% 30.28 in 7.0 mi ENE 4.6 mph - N/A   Clear
4:45 AM 51.8 °F 42.8 °F 71% 30.28 in 7.0 mi NE 10.4 mph - N/A   Clear
5:45 AM 51.8 °F 42.8 °F 71% 30.28 in 7.0 mi ENE 8.1 mph - N/A   Clear
6:40 AM 53 °F 46 °F 71% 29.85 in 6 mi East 17.9 mph - -  
6:45 AM 50.0 °F 42.8 °F 76% 30.24 in 7.0 mi NE 9.2 mph - N/A   Clear
7:45 AM 48.2 °F 42.8 °F 82% 30.26 in 7.0 mi ENE 9.2 mph - N/A   Clear
8:45 AM 51.8 °F 44.6 °F 76% 30.25 in 7.0 mi East 6.9 mph - N/A   Clear
9:40 AM 56 °F 47 °F 65% 29.94 in 16 mi East 17.9 mph - -  
9:45 AM 60.8 °F 42.8 °F 52% 30.28 in 7.0 mi ENE 11.5 mph - N/A   Clear
10:45 AM 66.2 °F 46.4 °F 49% 30.26 in 7.0 mi East 13.8 mph - N/A   Scattered Clouds
11:45 AM 68.0 °F 44.6 °F 43% 30.26 in 7.0 mi ENE 5.8 mph - N/A   Scattered Clouds
12:45 PM 73 °F 45 °F 25% 29.92 in 16 mi East 6.7 mph - -  
12:45 PM 71.6 °F 41.0 °F 33% 30.27 in 7.0 mi East 20.7 mph - N/A   Scattered Clouds
1:45 PM 75.2 °F 39.2 °F 27% 30.22 in 6.0 mi East 17.3 mph - N/A   Scattered Clouds
2:50 PM 77.0 °F 41.0 °F 28% 30.18 in 8.0 mi ESE 17.3 mph - N/A   Scattered Clouds
3:45 PM 77.0 °F 41.0 °F 28% 30.15 in 8.0 mi East 11.5 mph - N/A   Partly Cloudy
3:48 PM 79 °F 41 °F 16% 29.73 in 16 mi East 6.7 mph - -   Scattered Clouds
4:45 PM 77.0 °F 39.2 °F 26% 30.15 in 8.0 mi NE 9.2 mph - N/A   Partly Cloudy
5:45 PM 75.2 °F 41.0 °F 29% 30.15 in 8.0 mi NE 11.5 mph - N/A   Clear
6:45 PM 69.8 °F 42.8 °F 38% 30.15 in 8.0 mi NE 16.1 mph - N/A   Scattered Clouds
6:55 PM 74 °F 47 °F 27% 29.66 in 16 mi NE 11.2 mph - -  
7:50 PM 64.4 °F 44.6 °F 49% 30.18 in 7.0 mi NE 13.8 mph - N/A   Scattered Clouds
8:45 PM 62.6 °F 46.4 °F 55% 30.20 in 7.0 mi NE 9.2 mph - N/A   Mostly Cloudy
9:45 PM 57.2 °F 46.4 °F 67% 30.24 in 7.0 mi ESE 9.2 mph - N/A   Mostly Cloudy
9:55 PM 65 °F 48 °F 43% 29.70 in 12 mi SE 8.9 mph - -   Scattered Clouds
10:50 PM 55.4 °F 46.4 °F 72% 30.27 in 7.0 mi ESE 6.9 mph - N/A   Scattered Clouds
10:55 PM 55.4 °F 46.4 °F 72% 30.27 in 7.0 mi ESE 6.9 mph - N/A   Scattered Clouds
11:50 PM 55.4 °F 46.4 °F 72% 30.29 in 7.0 mi ENE 9.2 mph - N/A   Scattered Clouds